Sun Valley, CA

2:15 AM PDT on August 30, 2016 (GMT -0700)
Burbank-Glendale-Pasadena

Weather History for KBUR - September, 2012

Change the Weather History Date:

Sunday, September 16, 2012

  Actual Average Record
Temperature  
Mean Temperature 80 °F 73 °F  
Max Temperature 90 °F 86 °F 105 °F (1984)
Min Temperature 70 °F 60 °F 50 °F (1941)
Degree Days  
Heating Degree Days 0 0  
Month to date heating degree days 0 0  
Since 1 July heating degree days 0 0  
Cooling Degree Days 15 8  
Month to date cooling degree days 250 151  
Year to date cooling degree days 1268 1033  
Growing Degree Days 29 (Base 50)    
Moisture  
Dew Point 54 °F    
Average Humidity 56    
Maximum Humidity 84    
Minimum Humidity 27    
Precipitation  
Precipitation 0.00 in 0.01 in 0.10 in (1975)
Month to date precipitation T 0.06  
Year to date precipitation 5.48 12.70  
Since 1 July precipitation T  
Sea Level Pressure  
Sea Level Pressure 29.95 in    
Wind  
Wind Speed 7 mph (SE)    
Max Wind Speed 13 mph    
Max Gust Speed 18 mph    
Visibility 10 miles    
Events      
T = Trace of Precipitation, MM = Missing Value Source: NWS Daily Summary

Daily Weather History Graph

Daily Weather History Graph

Search for Another Location

Airport or City:

Trip Planner

Search our weather history database for the weather conditions in past years. The results will help you decide how hot, cold, wet, or windy it might be!

Date:

Astronomy

Sep. 16, 2012 Rise Set
Actual Time 6:37 AM PDT 6:57 PM PDT
Civil Twilight 6:12 AM PDT 7:22 PM PDT
Nautical Twilight 5:43 AM PDT 7:52 PM PDT
Astronomical Twilight 5:13 AM PDT 8:22 PM PDT
Moon 7:17 AM PDT (9/16) 7:11 PM PDT (9/16)
Length of Visible Light 13h 10m
Length of Day
12h 20m
New Moon, 1% of the Moon is Illuminated
Sep 16
New Moon
Sep 22
First Quarter
Sep 29
Full
Oct 8
Last Quarter
Oct 15
New

Hourly Weather History & Observations

Time (PDT) Temp. Heat Index Dew Point Humidity Pressure Visibility Wind Dir Wind Speed Gust Speed Precip Events Conditions
12:53 AM 78.1 °F - 44.1 °F 30% 29.94 in 10.0 mi North 3.5 mph - N/A   Clear
1:53 AM 77.0 °F - 43.0 °F 30% 29.94 in 10.0 mi NNW 3.5 mph - N/A   Clear
2:53 AM 75.0 °F - 43.0 °F 32% 29.94 in 10.0 mi Calm Calm - N/A   Clear
3:53 AM 73.9 °F - 43.0 °F 33% 29.93 in 10.0 mi Calm Calm - N/A   Clear
4:53 AM 73.0 °F - 44.1 °F 35% 29.93 in 10.0 mi Calm Calm - N/A   Clear
5:53 AM 71.1 °F - 44.1 °F 38% 29.94 in 10.0 mi Calm Calm - N/A   Clear
6:53 AM 70.0 °F - 45.0 °F 41% 29.96 in 10.0 mi Calm Calm - N/A   Clear
7:53 AM 73.0 °F - 50.0 °F 44% 29.98 in 10.0 mi ESE 6.9 mph - N/A   Clear
8:53 AM 75.9 °F - 55.9 °F 50% 29.99 in 10.0 mi ESE 9.2 mph - N/A   Clear
9:53 AM 79.0 °F - 57.9 °F 48% 30.00 in 10.0 mi SE 11.5 mph - N/A   Clear
10:53 AM 82.0 °F 81.3 °F 54.0 °F 38% 30.00 in 10.0 mi ESE 10.4 mph - N/A   Clear
11:53 AM 84.0 °F 84.4 °F 61.0 °F 46% 29.99 in 10.0 mi SSE 8.1 mph - N/A   Clear
12:53 PM 87.1 °F 85.9 °F 57.0 °F 36% 29.98 in 10.0 mi South 10.4 mph - N/A   Clear
1:53 PM 88.0 °F 85.9 °F 54.0 °F 31% 29.96 in 10.0 mi South 11.5 mph 16.1 mph N/A   Clear
2:53 PM 89.1 °F - 52.0 °F 28% 29.93 in 10.0 mi South 9.2 mph - N/A   Clear
3:53 PM 88.0 °F 86.7 °F 57.0 °F 35% 29.91 in 10.0 mi South 10.4 mph - N/A   Clear
4:53 PM 87.1 °F 85.1 °F 54.0 °F 32% 29.91 in 10.0 mi South 9.2 mph - N/A   Clear
5:53 PM 84.9 °F 83.2 °F 53.1 °F 33% 29.91 in 10.0 mi South 10.4 mph - N/A   Clear
6:53 PM 82.0 °F 81.4 °F 55.0 °F 39% 29.92 in 10.0 mi South 5.8 mph - N/A   Clear
7:53 PM 79.0 °F - 59.0 °F 50% 29.93 in 10.0 mi SE 10.4 mph - N/A   Clear
8:53 PM 75.0 °F - 63.0 °F 66% 29.95 in 10.0 mi SE 10.4 mph - N/A   Clear
9:53 PM 73.0 °F - 64.0 °F 73% 29.96 in 10.0 mi ESE 9.2 mph - N/A   Clear
10:53 PM 71.1 °F - 64.9 °F 81% 29.97 in 6.0 mi SE 9.2 mph - N/A   Haze
11:07 PM 69.8 °F - 64.4 °F 83% 30.01 in 6.0 mi SE 8.1 mph - N/A   Haze
11:53 PM 70.0 °F - 64.9 °F 84% 29.98 in 5.0 mi East 4.6 mph - N/A   Haze